TimeEDT,TemperatureF,Dew PointF,Humidity,Sea Level PressureIn,VisibilityMPH,Wind Direction,Wind SpeedMPH,Gust SpeedMPH,PrecipitationIn,Events,Conditions,WindDirDegrees,DateUTC
12:53 AM,70.0,55.9,61,30.19,10.0,North,5.8,-,N/A,,Overcast,360,2013-07-13 04:53:00
1:53 AM,70.0,55.9,61,30.19,10.0,North,6.9,-,N/A,,Overcast,350,2013-07-13 05:53:00
2:53 AM,69.1,57.9,68,30.19,10.0,North,6.9,-,N/A,,Overcast,360,2013-07-13 06:53:00
3:38 AM,69.8,57.2,64,30.20,10.0,NNE,6.9,-,N/A,,Overcast,20,2013-07-13 07:38:00
3:53 AM,69.1,57.9,68,30.19,10.0,North,6.9,-,N/A,,Overcast,10,2013-07-13 07:53:00
4:53 AM,68.0,57.9,70,30.21,10.0,North,6.9,-,N/A,,Overcast,10,2013-07-13 08:53:00
5:53 AM,64.9,61.0,87,30.24,7.0,North,4.6,-,0.00,,Overcast,10,2013-07-13 09:53:00
6:53 AM,64.0,60.1,87,30.25,5.0,North,6.9,-,N/A,,Overcast,10,2013-07-13 10:53:00
7:53 AM,64.9,60.1,84,30.27,10.0,North,4.6,-,N/A,,Overcast,10,2013-07-13 11:53:00
8:04 AM,64.4,60.8,88,30.28,10.0,North,5.8,-,N/A,,Overcast,350,2013-07-13 12:04:00
8:53 AM,66.0,62.1,87,30.28,5.0,North,8.1,-,0.01,Rain,Light Rain,10,2013-07-13 12:53:00
8:57 AM,66.2,60.8,83,30.28,9.0,North,6.9,-,0.00,,Overcast,360,2013-07-13 12:57:00
9:53 AM,66.9,62.1,84,30.29,10.0,North,6.9,-,0.00,Rain,Light Rain,350,2013-07-13 13:53:00
9:57 AM,66.2,62.6,88,30.29,4.0,North,5.8,-,0.00,Rain,Light Rain,350,2013-07-13 13:57:00
10:25 AM,66.2,62.6,88,30.29,4.0,North,5.8,-,0.00,Rain,Light Rain,360,2013-07-13 14:25:00
10:53 AM,68.0,63.0,84,30.29,4.0,North,8.1,-,0.00,Rain,Light Rain,360,2013-07-13 14:53:00
11:20 AM,69.8,64.4,83,30.29,3.0,North,5.8,-,0.00,Rain,Light Rain,10,2013-07-13 15:20:00
11:53 AM,70.0,66.0,87,30.29,3.0,North,4.6,-,0.00,Rain,Light Rain,350,2013-07-13 15:53:00
12:00 PM,69.8,64.4,83,30.30,10.0,NNW,4.6,-,0.00,Rain,Light Rain,340,2013-07-13 16:00:00
12:53 PM,71.1,66.0,84,30.30,10.0,North,5.8,-,0.00,,Overcast,350,2013-07-13 16:53:00
1:40 PM,73.4,66.2,78,30.30,10.0,Calm,Calm,-,N/A,,Overcast,0,2013-07-13 17:40:00
1:53 PM,73.9,66.9,79,30.29,10.0,NNW,3.5,-,N/A,,Overcast,330,2013-07-13 17:53:00
2:53 PM,75.0,68.0,79,30.29,10.0,Variable,3.5,-,N/A,,Overcast,0,2013-07-13 18:53:00
3:53 PM,77.0,69.1,76,30.28,10.0,North,5.8,-,N/A,,Overcast,10,2013-07-13 19:53:00
4:22 PM,77.0,69.8,78,30.29,10.0,North,3.5,-,N/A,,Overcast,350,2013-07-13 20:22:00
4:53 PM,79.0,70.0,74,30.27,10.0,Variable,3.5,-,N/A,,Mostly Cloudy,0,2013-07-13 20:53:00
5:20 PM,78.8,69.8,74,30.27,10.0,Calm,Calm,-,N/A,,Scattered Clouds,0,2013-07-13 21:20:00
5:34 PM,78.8,69.8,74,30.27,10.0,NNW,4.6,-,N/A,,Mostly Cloudy,340,2013-07-13 21:34:00
5:53 PM,77.0,70.0,79,30.27,10.0,North,8.1,-,N/A,,Overcast,10,2013-07-13 21:53:00
6:53 PM,75.9,70.0,82,30.27,10.0,North,6.9,-,N/A,,Overcast,360,2013-07-13 22:53:00
7:53 PM,75.0,70.0,84,30.28,10.0,NNE,3.5,-,N/A,,Overcast,20,2013-07-13 23:53:00
8:02 PM,75.2,69.8,83,30.28,10.0,Calm,Calm,-,N/A,,Overcast,0,2013-07-14 00:02:00
8:32 PM,75.2,69.8,83,30.29,8.0,NNW,3.5,-,0.00,Rain,Light Rain,340,2013-07-14 00:32:00
8:53 PM,73.9,71.1,91,30.29,10.0,North,3.5,-,0.00,,Overcast,10,2013-07-14 00:53:00
9:30 PM,73.4,69.8,88,30.30,10.0,Calm,Calm,-,N/A,,Overcast,0,2013-07-14 01:30:00
9:41 PM,73.4,69.8,88,30.30,10.0,North,4.6,-,N/A,,Overcast,350,2013-07-14 01:41:00
9:53 PM,73.9,70.0,87,30.30,10.0,North,3.5,-,N/A,,Overcast,360,2013-07-14 01:53:00
10:06 PM,73.4,69.8,88,30.30,10.0,North,4.6,-,N/A,,Overcast,360,2013-07-14 02:06:00
10:18 PM,73.4,69.8,88,30.31,10.0,Calm,Calm,-,N/A,,Overcast,0,2013-07-14 02:18:00
10:26 PM,73.4,69.8,88,30.30,10.0,North,6.9,-,N/A,,Overcast,360,2013-07-14 02:26:00
10:53 PM,73.0,69.1,87,30.30,10.0,North,5.8,-,N/A,,Overcast,360,2013-07-14 02:53:00
11:12 PM,71.6,69.8,94,30.31,9.0,North,4.6,-,0.00,Rain,Light Rain,360,2013-07-14 03:12:00
11:43 PM,73.4,69.8,88,30.31,10.0,Calm,Calm,-,0.00,,Overcast,0,2013-07-14 03:43:00
11:53 PM,72.0,69.1,91,30.30,10.0,WNW,3.5,-,0.00,,Overcast,300,2013-07-14 03:53:00